Home   Weather   Melbourne Manor   Past weeks
Flag for USA

Past Weather in Melbourne Manor, Delaware, USA — Yesterday and Last 2 Weeks

Now
63 °F

Light rain. Mostly cloudy.


Feels Like: 63 °F
Forecast: 65 / 47 °F
Wind: No wind

Location: Dover Air Force Base

Current Time: Oct 22, 2019 at 10:36:13 pm

Latest Report: Oct 22, 2019 at 9:57 pm


Visibility: 10 mi

Pressure: 29.83 "Hg

Humidity: 100%

Dew Point: 63 °F

Location of Melbourne ManorLocation

Past Weather in Melbourne Manor — Graph

°F

Melbourne Manor Temperature Yesterday

Maximum temperature yesterday: 68 °F (at 3:56 pm)
Minimum temperature yesterday: 53 °F (at 7:56 am)
Average temperature yesterday: 59 °F

High & Low Weather Summary for the Past Weeks

 TemperatureHumidityPressure
High75 °F (Oct 10, 2:56 pm)100% (Oct 13, 11:24 pm)30.25 "Hg (Oct 13, 11:24 pm)
Low40 °F (Oct 19, 6:56 am)30% (Oct 14, 3:56 pm)29.39 "Hg (Oct 16, 5:19 pm)
Average59 °F74%30.00 "Hg
* Reported Oct 7 9:56 pm — Oct 22 9:36 pm, Melbourne Manor. Weather by CustomWeather, © 2019

Note: Actual official high and low records may vary slightly from our data, if they occured in-between our weather recording intervals... More about our weather records

Advertising

Melbourne Manor Weather History for the Previous 24 Hours

Scroll right to see more
 ConditionsComfort  
Time TempWeatherWind HumidityBarometerVisibility
9:36 pm
Tue, Oct 22
63 °FLight rain. Low clouds.No wind100%29.83 "Hg6 mi
9:06 pm63 °FLight rain. Passing clouds.6 mph100%29.82 "Hg5 mi
8:56 pm63 °FLight rain. Passing clouds.6 mph100%29.82 "Hg6 mi
7:57 pm65 °FRain. Overcast.8 mph100%29.82 "Hg5 mi
7:44 pm66 °FLight rain. Overcast.7 mph100%29.81 "Hg9 mi
7:04 pm64 °FHeavy rain. Passing clouds.8 mph100%29.81 "Hg3 mi
6:56 pm64 °FRain. Mostly cloudy.9 mph100%29.82 "Hg4 mi
6:19 pm64 °FLight rain. Low clouds.3 mph100%29.81 "Hg6 mi
5:57 pm64 °FFog.12 mph100%29.80 "Hg6 mi
5:31 pm64 °FLight rain. Low clouds.10 mph100%29.80 "Hg5 mi
5:19 pm64 °FFog.14 mph100%29.81 "Hg4 mi
4:18 pm64 °FFog.10 mph94%29.85 "Hg5 mi
3:56 pm64 °FMostly cloudy.13 mph99%29.85 "Hg10 mi
3:27 pm64 °FMostly cloudy.15 mph100%29.86 "Hg10 mi
2:56 pm63 °FLow clouds.9 mph100%29.87 "Hg10 mi
2:13 pm64 °FLow clouds.13 mph100%29.87 "Hg10 mi
1:56 pm64 °FFog.12 mph100%29.88 "Hg6 mi
12:56 pm63 °FFog.12 mph100%29.93 "Hg2 mi
12:36 pm63 °FFog.12 mph100%29.95 "Hg1 mi
11:56 am63 °FFog.10 mph100%29.97 "Hg2 mi
11:36 am63 °FFog.8 mph100%29.99 "Hg6 mi
10:56 am62 °FFog.7 mph100%30.00 "Hg6 mi
10:42 am63 °FFog.5 mph100%30.01 "Hg5 mi
10:33 am63 °FDrizzle. Fog.8 mph100%30.01 "Hg5 mi
10:16 am63 °FFog.7 mph100%30.02 "Hg6 mi
9:56 am62 °FFog.7 mph100%30.02 "Hg6 mi
9:08 am61 °FFog.5 mph100%30.03 "Hg1 mi
8:56 am60 °FFog.5 mph100%30.03 "Hg3 mi
8:36 am61 °FFog.3 mph100%30.03 "Hg3 mi
7:56 am59 °FFog.No wind100%30.02 "Hg5 mi
7:17 am59 °FFog.7 mph100%30.01 "Hg2 mi
6:56 am59 °FFog.3 mph100%30.04 "Hg4 mi
6:20 am59 °FFog.No wind100%30.04 "Hg3 mi
5:56 am59 °FFog.No wind99%30.04 "Hg2 mi
4:56 am59 °FFog.5 mph97%30.05 "Hg3 mi
4:25 am59 °FFog.No wind94%30.05 "Hg2 mi
4:00 am59 °FMostly cloudy.No wind94%30.06 "Hg10 mi
3:15 am59 °FOvercast.No wind94%30.08 "Hg10 mi
2:40 am59 °FLow clouds.No wind94%30.09 "Hg10 mi
2:16 am59 °FMostly cloudy.3 mph94%30.09 "Hg10 mi
1:56 am59 °FLow clouds.3 mph93%30.08 "Hg10 mi
1:17 am59 °FMostly cloudy.3 mph94%30.08 "Hg10 mi
12:57 am59 °FFog.5 mph94%30.09 "Hg6 mi
12:16 am59 °FOvercast.3 mph94%30.10 "Hg10 mi
11:56 pm
Mon, Oct 21
59 °FMostly cloudy.No wind93%30.12 "Hg10 mi
11:07 pm59 °FLow clouds.5 mph88%30.12 "Hg10 mi
10:57 pm59 °FLow clouds.6 mph89%30.12 "Hg10 mi
Weather by CustomWeather, © 2019

See weather overview